Weather History for CWVU - March, 2014

Change the Weather History Date:

Monday, March 24, 2014

  Actual Average Record
Temperature  
Mean Temperature 18 °F -  
Max Temperature 25 °F - - ()
Min Temperature 12 °F - - ()
Degree Days  
Heating Degree Days 46    
Moisture  
Dew Point 9 °F    
Average Humidity 62    
Maximum Humidity 82    
Minimum Humidity 34    
Precipitation  
Precipitation 0.01 in - - ()
Sea Level Pressure  
Sea Level Pressure 30.00 in    
Wind  
Wind Speed 25 mph ()    
Max Wind Speed 34 mph    
Max Gust Speed 41 mph    
T = Trace of Precipitation, MM = Missing Value Source: Averaged Metar Reports

Daily Weather History Graph

Daily Weather History Graph

Search for Another Location

Airport or City:

Trip Planner

Search our weather history database for the weather conditions in past years. The results will help you decide how hot, cold, wet, or windy it might be!

Date:

Astronomy

Mar. 24, 2014 Rise Set
Actual Time 7:21 AM ADT 7:42 PM ADT
Civil Twilight 6:52 AM ADT 8:11 PM ADT
Nautical Twilight 6:18 AM ADT 8:46 PM ADT
Astronomical Twilight 5:43 AM ADT 9:21 PM ADT
Moon 3:00 AM ADT 12:51 PM ADT
Length of Visible Light 13h 19m
Length of Day
12h 21m
Last Quarter, 44% of the Moon is Illuminated
Mar 24
Last Quarter
Mar 30
New
Apr 7
First Quarter
Apr 15
Full
Apr 22
Last Quarter

Hourly Weather History & Observations

Time (ADT) Temp. Windchill Dew Point Humidity Pressure Visibility Wind Dir Wind Speed Gust Speed Precip Events Conditions
12:00 AM 23.0 °F 4.4 °F 14.7 °F 71% 29.96 in - NW 34.5 mph 40.3 mph N/A   Unknown
1:00 AM 20.7 °F 1.4 °F 13.5 °F 74% 29.98 in - NW 33.4 mph 40.3 mph N/A   Unknown
2:00 AM 18.7 °F -0.5 °F 10.9 °F 72% 30.00 in - NW 29.9 mph 36.8 mph N/A   Unknown
3:00 AM 18 °F - 11 °F 62% 30.00 in - NNW 26.5 mph - -  
3:00 AM 18.1 °F -0.3 °F 10.6 °F 72% 30.00 in - NNW 26.5 mph 33.4 mph N/A   Unknown
4:00 AM 16.9 °F -1.9 °F 9.3 °F 72% 29.99 in - NNW 26.5 mph 32.2 mph N/A   Unknown
5:00 AM 14.9 °F -5.9 °F 8.4 °F 76% 30.00 in - NW 31.1 mph 41.4 mph N/A   Unknown
6:00 AM 14.2 °F -6.6 °F 8.1 °F 77% 30.01 in - NNW 29.9 mph 39.1 mph N/A   Unknown
7:00 AM 13.8 °F -6.4 °F 8.1 °F 78% 30.01 in - NW 27.6 mph 36.8 mph N/A   Unknown
8:00 AM 14.0 °F -5.5 °F 8.4 °F 78% 30.03 in - NW 25.3 mph 32.2 mph 0.01 in   Unknown
9:00 AM 14 °F - 9 °F 70% 30.02 in - NW 26.5 mph - -  
9:00 AM 13.6 °F -6.3 °F 8.6 °F 80% 30.02 in - NW 26.5 mph 35.7 mph N/A   Unknown
10:00 AM 14.2 °F -5.9 °F 9.0 °F 80% 30.01 in - NW 27.6 mph 34.5 mph N/A   Unknown
11:00 AM 15.8 °F -4.1 °F 11.1 °F 82% 30.01 in - NW 28.8 mph 36.8 mph N/A   Unknown
12:00 PM 16.2 °F -2.9 °F 8.6 °F 72% 30.00 in - NW 26.5 mph - N/A   Unknown
1:00 PM 18.5 °F 1.6 °F 7.3 °F 62% 29.99 in - WNW 21.9 mph 29.9 mph N/A   Unknown
2:00 PM 19.9 °F 3.5 °F 7.2 °F 58% 29.99 in - WNW 21.9 mph 31.1 mph N/A   Unknown
3:00 PM 21 °F - 4 °F 34% 29.97 in - WNW 21.9 mph - -  
3:00 PM 21.2 °F 5.2 °F 4.5 °F 49% 29.97 in - WNW 21.9 mph 28.8 mph N/A   Unknown
4:00 PM 22.6 °F 6.8 °F 4.8 °F 46% 29.96 in - WNW 23.0 mph 28.8 mph N/A   Unknown
5:00 PM 23.5 °F 8.0 °F 5.0 °F 45% 29.96 in - West 23.0 mph 29.9 mph N/A   Unknown
6:00 PM 24.1 °F 8.7 °F 4.5 °F 43% 29.96 in - WNW 23.0 mph 28.8 mph N/A   Unknown
7:00 PM 24.4 °F 9.2 °F 8.6 °F 51% 29.96 in - West 23.0 mph 32.2 mph N/A   Unknown
8:00 PM 25.7 °F 10.2 °F 7.7 °F 47% 29.98 in - WNW 25.3 mph 31.1 mph N/A   Unknown
9:00 PM 25 °F - 11 °F 41% 30.00 in - WNW 26.5 mph - -  
9:00 PM 24.6 °F 8.5 °F 10.8 °F 56% 30.00 in - WNW 26.5 mph 33.4 mph N/A   Unknown
10:00 PM 23.5 °F 6.7 °F 6.3 °F 48% 30.03 in - WNW 27.6 mph 33.4 mph N/A   Unknown
11:00 PM 23.0 °F 6.9 °F 7.9 °F 52% 30.05 in - WNW 24.2 mph 29.9 mph N/A   Unknown